STARLINK-34044 (63846 NORAD) Tracking and Keplerian Element Data

This shows tracking and keplerian element data for the satellite.

Feedback or suggestion? Click here.




ElementValue
Catalog63846
NameSTARLINK-34044
Epoch Orbit3555
Epoch Day353.90912456
Epoch Year2025
RAAN168.2125
Inclination42.9999
Eccentricity0.0001681
Argument of Perigee265.9007
Mean Anonmoly94.1653
Mean Motion15.27592371
Decay Rate0.00023528
L11 63846U 25093L 25353.90912456 .00023528 00000+0 86144-3 0 9995
L22 63846 42.9999 168.2125 0001681 265.9007 94.1653 15.27592371 35559



Live tracking and technical data element details for STARLINK-34044 (NORAD 63846). STARLINK-34044 can be tracked NOW for your location showing map with azimuth and elevation plus other details from your city location.







IsCatalogInMostPopularTable: catalog: 63846, numindb: 11
Update: records affected: 1



GetName: 63846 STARLINK-34044

Hit Count: updated at: Thu, 21 May 2026 11:23:22 GMT